Temperature
18 16 16 16 17 17 17 16 16 17 17 16 16 15 15 16 15 15 15 16 16 17 17 17 17 16 16 16 16 16 16 15 15 15 15 15 14 14 14 14 14 14 14 14
16 16 17 17 17 17 17 16 16 17 17 16 15 15 15 15 15 15 15 16 16 16 16 17 16 16 16 16 16 16 15 15 15 15 15 15 14 14 14 14 14 14 14 14
17 17 18 18 17 17 17 16 16 16 16 16 16 15 15 15 15 15 15 16 16 16 17 17 16 16 16 16 16 16 15 15 15 15 15 14 14 14 14 14 14 13 13 13
17 17 18 18 17 17 16 17 17 17 16 14 16 14 15 14 14 14 14 15 15 16 16 16 16 16 16 16 16 16 15 15 15 15 15 14 14 14 14 13 13 13 13 13
17 18 18 17 18 17 17 17 17 16 15 14 14 14 14 13 14 14 14 14 15 16 16 16 16 16 16 16 16 16 15 15 15 15 14 14 14 14 13 13 13 13 13 13
17 17 18 18 18 17 17 16 15 13 14 14 14 14 14 13 14 14 14 14 15 15 16 16 16 16 16 16 16 15 15 15 15 14 14 14 14 14 13 13 13 13 13 12
16 17 17 18 17 17 16 15 14 14 13 13 14 14 14 14 14 14 14 14 15 15 15 16 16 16 16 15 15 15 15 15 15 14 14 14 14 13 13 13 13 13 12 12
16 15 17 17 17 16 16 15 14 15 14 13 14 13 14 14 14 14 14 14 15 15 15 15 15 16 15 15 15 15 15 15 14 14 14 14 13 13 13 13 12 12 12 12
15 15 17 17 17 16 16 14 14 13 14 13 13 13 13 14 13 13 13 14 14 15 15 15 15 15 15 15 15 15 15 15 14 14 14 13 13 13 13 12 12 12 12 12
15 15 16 17 17 16 16 14 13 13 14 13 14 14 13 14 14 13 12 13 14 14 15 15 15 15 15 15 15 14 14 14 14 14 14 13 13 13 12 12 12 12 12 12
15 15 15 16 16 16 15 14 13 12 12 13 13 14 14 13 13 12 12 13 13 14 14 14 15 14 15 14 14 14 14 14 14 13 13 13 13 13 12 12 12 12 11 11
13 13 13 15 15 16 15 14 13 13 13 11 12 13 14 12 13 12 13 13 13 14 14 14 14 14 14 14 14 14 13 13 13 13 13 13 12 12 12 12 12 11 11 11
13 13 13 14 14 15 15 14 13 12 11 11 12 13 13 12 12 13 13 13 13 13 13 14 14 14 14 14 13 13 13 13 13 13 13 12 12 12 12 11 11 11 11 11
14 12 13 14 14 14 14 14 13 12 12 11 12 13 13 13 12 12 13 13 13 13 13 13 13 13 13 13 13 13 13 13 13 12 12 12 12 12 11 11 11 11 11 11
13 13 13 13 14 14 14 14 13 13 12 12 13 12 13 12 12 12 13 13 13 13 13 13 13 13 13 13 13 13 12 12 12 12 12 12 12 11 11 11 11 10 10 10
11 12 13 13 13 13 13 13 13 13 12 12 12 12 12 12 12 12 12 12 12 13 13 13 13 13 13 13 12 12 12 12 12 12 11 11 11 11 11 10 10 10 10 10
10 11 12 12 12 13 13 13 12 12 12 12 12 13 12 11 11 12 12 13 13 13 13 13 13 13 13 13 12 12 12 11 11 11 11 11 10 10 10 10 10 10 9 9
10 10 9 10 12 13 13 12 13 12 12 11 11 11 11 12 12 13 13 13 13 13 13 13 13 13 13 12 12 11 11 11 11 11 10 10 10 10 10 9 9 9 9 9
9 10 9 9 11 11 12 12 12 12 12 11 11 11 11 11 11 12 13 13 13 13 13 13 12 12 12 12 11 11 10 10 10 10 10 10 10 10 9 9 9 9 9 9
8 9 9 9 11 11 12 12 12 12 12 12 11 10 10 10 10 11 13 13 13 12 12 12 12 12 12 11 11 10 10 10 10 10 10 10 9 9 9 9 9 8 8 8
9 8 9 9 10 10 11 12 12 12 12 12 12 12 11 10 11 12 12 12 12 12 12 12 12 11 11 11 10 10 10 10 10 10 9 9 9 9 9 8 8 8 8 8
9 8 8 8 9 10 11 11 11 11 13 13 13 13 12 12 12 11 11 11 11 11 11 11 11 11 10 10 10 10 9 9 9 9 9 9 9 8 8 8 8 8 8 7
8 9 8 9 10 11 12 12 13 13 13 13 13 13 12 12 11 11 11 11 11 11 11 10 10 10 10 10 9 9 9 9 9 8 8 8 8 8 8 8 7 7 7 7
7 8 7 8 8 10 12 13 13 13 13 13 13 12 12 12 11 11 10 10 10 10 10 10 10 10 9 9 9 9 8 8 8 8 8 8 7 7 7 7 7 7 7 7
8 7 7 7 8 10 12 13 13 13 13 13 12 12 12 11 11 11 10 10 10 10 10 9 9 9 9 9 8 8 8 8 8 7 7 7 7 7 7 7 7 7 7 6
7 7 8 9 10 10 12 13 13 13 12 12 12 12 11 11 11 10 10 10 9 9 9 9 9 9 8 8 8 8 7 7 7 7 7 7 6 6 6 6 6 6 6 6
Wind_Speed
4 5 2 4 5 5 5 4 2 3 2 3 4 5 5 3 2 4 4 4 5 5 3 2 3 3 4 4 4 3 4 3 3 2 2 2 2 2 2 4 5 5 5 5
5 0 3 3 4 5 4 3 1 1 0 2 2 5 5 3 4 5 6 6 6 4 2 3 3 3 4 4 4 4 4 4 3 2 2 2 2 1 1 3 4 5 5 5
4 3 2 5 5 4 2 5 4 2 2 2 1 5 4 3 2 2 3 4 4 6 6 5 5 5 5 5 5 5 4 4 3 3 3 3 3 3 2 2 2 3 3 4
1 1 3 4 4 5 3 4 4 3 2 2 1 3 6 4 4 3 4 4 4 5 5 5 6 6 6 6 5 4 4 4 3 4 4 5 3 2 1 0 1 2 3 3
2 2 3 3 4 5 4 2 3 2 3 1 1 2 7 3 4 6 6 5 5 5 6 6 7 7 6 5 5 4 4 4 3 4 5 5 3 1 0 1 1 2 2 3
1 1 2 4 2 3 4 6 6 5 4 1 3 3 6 3 4 5 5 5 5 5 5 4 5 4 4 4 4 5 5 4 3 4 4 5 4 3 2 1 0 1 1 2
3 3 2 2 2 2 5 5 3 3 3 4 2 2 6 5 4 4 5 5 4 3 4 3 4 5 5 5 5 5 5 4 4 4 4 4 4 4 4 2 1 0 1 1
1 4 3 1 4 5 4 7 6 4 4 4 2 4 6 5 4 3 2 2 1 1 2 3 5 5 6 6 6 6 6 5 5 5 4 3 3 3 2 2 2 1 1 2
4 4 3 1 1 7 5 3 5 5 2 2 4 5 7 3 3 2 1 1 1 1 2 3 3 4 5 5 6 7 7 5 5 4 4 4 3 3 2 2 1 1 1 0
6 3 3 2 4 3 5 7 5 4 3 3 5 4 4 6 5 3 2 2 2 1 1 1 2 3 4 4 4 5 5 5 4 4 4 3 3 3 2 2 2 1 1 0
4 4 3 2 2 3 3 4 4 4 4 4 3 6 4 5 5 5 5 4 2 1 1 1 2 2 2 3 4 4 4 4 4 4 3 3 2 2 2 2 1 1 1 1
3 4 2 4 3 2 4 6 7 4 4 4 4 7 5 4 4 4 4 3 2 1 1 1 0 1 2 3 3 4 5 5 4 4 4 3 3 3 2 1 1 1 1 0
4 4 2 5 5 2 1 3 4 4 4 4 4 7 3 3 2 1 2 2 1 1 0 0 1 1 1 2 3 3 3 4 3 4 4 3 3 3 2 2 1 1 1 1
4 4 5 6 6 3 3 2 4 5 4 5 8 8 7 5 4 3 2 2 1 2 2 1 1 1 1 2 2 3 2 2 3 4 4 4 3 3 3 2 1 1 1 1
4 3 4 4 4 3 4 5 5 6 7 8 8 9 10 8 6 5 3 2 2 2 2 3 2 2 2 2 1 2 2 2 3 4 4 4 3 3 2 2 1 1 1 1
2 3 2 3 3 3 4 6 6 7 5 6 7 9 7 5 3 3 4 4 4 5 4 3 3 2 2 3 2 2 2 3 3 4 4 3 2 2 2 2 2 1 1 2
2 4 2 4 4 2 5 6 7 5 5 7 9 9 4 3 4 6 5 5 5 6 5 4 4 4 4 4 3 3 2 3 3 3 3 3 3 3 2 2 2 2 2 2
5 4 3 1 1 5 7 3 5 5 5 5 5 5 5 5 4 4 4 5 5 4 4 4 4 4 3 3 2 2 2 3 3 3 2 3 3 3 3 2 2 2 2 2
5 6 4 3 3 7 7 3 3 4 6 4 5 5 3 1 2 3 3 4 5 4 4 4 4 4 3 3 3 3 3 2 2 2 2 3 3 3 3 3 3 2 2 2
4 4 4 3 3 6 7 4 2 2 5 4 4 4 2 3 1 5 3 2 2 1 1 2 3 3 3 3 4 4 3 2 2 3 2 2 3 4 4 3 2 2 2 2
2 2 4 4 5 8 6 3 3 3 6 4 4 5 4 4 5 3 1 0 1 1 1 3 3 3 3 3 4 4 3 3 3 2 2 2 3 3 3 3 2 2 2 2
6 5 5 4 4 8 4 5 6 7 3 3 4 4 5 4 2 1 1 1 1 2 2 3 3 2 2 3 4 4 4 3 2 2 2 1 2 2 2 3 2 2 2 2
7 7 6 8 8 6 4 6 5 4 4 4 4 4 4 3 2 2 1 1 1 1 2 2 3 2 2 3 4 4 3 2 3 3 2 1 1 1 2 3 3 2 2 2
4 3 4 5 8 6 6 5 5 5 5 5 5 5 4 4 3 3 2 1 1 2 2 2 3 3 2 2 2 3 2 3 3 3 2 1 1 1 1 1 2 3 3 3
6 5 4 6 7 6 6 6 6 4 4 4 3 4 5 5 4 4 3 3 3 2 2 2 3 3 2 2 1 2 3 4 3 3 2 1 1 1 1 1 2 3 4 5
6 7 7 8 8 6 7 6 5 5 5 5 4 3 3 4 5 3 3 3 2 2 2 2 2 2 2 2 2 1 3 4 4 2 2 1 1 1 1 1 1 2 2 3
Wind_Direction
46 82 151 197 184 161 147 148 190 242 228 155 203 254 268 235 201 222 223 220 220 226 221 175 160 141 128 121 121 130 128 124 120 113 109 95 76 47 41 43 52 58 61 61
55 351 228 159 132 124 133 141 195 303 83 160 221 274 280 239 223 223 220 223 224 222 206 187 167 155 157 154 153 151 155 150 148 145 136 130 126 91 69 38 41 48 59 61
152 234 146 126 127 132 167 177 190 200 22 44 48 319 304 297 273 262 251 231 221 208 204 197 185 183 175 172 174 174 173 163 154 129 106 90 68 54 41 27 20 18 42 57
178 254 129 128 156 151 212 213 178 170 124 289 75 286 293 293 298 280 269 251 231 222 205 198 192 190 190 189 177 169 161 154 150 141 136 133 131 136 208 232 329 10 27 39
227 167 142 165 203 168 199 149 135 135 135 20 1 205 287 324 293 282 270 255 241 223 205 202 200 197 192 179 171 167 159 154 150 147 152 144 133 144 121 69 50 19 14 21
261 271 185 198 182 149 133 80 63 54 75 310 252 194 280 261 256 282 278 265 245 225 209 204 194 177 176 168 165 162 162 165 160 154 153 152 151 148 131 99 57 346 347 0
340 325 302 166 116 76 101 101 44 2 6 258 267 209 253 261 256 251 263 265 254 221 198 187 176 175 176 175 176 168 170 174 169 163 163 166 166 167 175 181 192 239 325 326
171 292 274 199 174 173 159 141 158 196 226 276 311 239 258 274 289 278 266 268 272 215 198 197 191 186 186 183 178 174 173 173 174 173 176 175 172 172 181 185 182 199 232 252
178 245 283 259 152 139 140 160 161 140 163 272 280 286 302 294 317 335 348 19 283 249 216 211 199 193 193 188 187 184 176 169 175 175 171 167 169 170 178 186 176 193 238 256
164 216 294 317 79 51 138 143 106 123 164 259 285 274 262 278 273 279 271 266 283 341 331 238 212 207 198 189 181 175 174 172 172 167 168 168 172 173 170 162 175 186 193 98
141 166 311 18 175 192 111 114 117 124 155 170 259 271 244 241 242 238 248 249 252 250 261 262 246 214 178 158 158 162 167 162 161 164 163 153 156 151 143 147 184 186 171 162
134 130 220 260 276 196 164 170 152 163 212 186 200 264 287 265 256 233 246 255 247 225 225 213 177 156 151 156 161 170 171 173 175 170 159 155 152 141 134 143 181 165 151 147
130 114 69 344 343 1 139 166 159 140 137 173 198 260 301 336 335 264 231 244 240 171 168 109 91 122 157 167 169 171 174 180 174 160 153 149 150 147 150 163 183 150 128 87
109 124 167 201 225 224 247 213 168 154 180 215 226 248 280 287 283 281 251 235 214 195 195 182 149 164 170 164 168 173 173 166 156 149 152 159 171 170 169 168 168 170 146 127
102 164 204 230 242 220 229 234 204 203 205 211 238 242 257 253 248 246 235 222 205 213 220 205 186 187 164 154 163 163 167 158 153 151 161 180 176 159 150 146 151 132 99 88
89 168 186 278 261 234 255 253 226 227 222 228 248 261 260 253 242 238 232 214 218 219 224 214 188 178 183 185 182 168 172 175 159 162 177 177 152 142 150 150 140 116 95 82
144 145 149 259 294 336 270 239 219 221 218 206 230 248 251 250 236 230 228 220 218 219 220 209 202 200 200 200 191 182 179 160 154 162 172 170 163 159 170 154 133 139 136 105
158 149 156 205 32 240 245 240 208 217 246 226 233 255 245 236 251 256 228 216 225 223 216 213 202 198 192 181 168 157 138 142 148 150 168 173 168 170 165 154 155 159 142 129
166 152 143 152 224 271 289 258 193 210 264 236 225 251 269 16 13 303 247 223 226 226 216 204 195 186 172 163 156 140 142 145 148 164 184 188 176 172 165 172 180 173 150 144
85 121 135 148 195 243 252 256 215 146 270 257 207 226 229 109 281 271 269 223 230 230 191 171 154 145 157 164 150 146 158 162 185 201 200 191 176 172 176 186 185 172 154 154
95 99 160 182 221 256 252 249 121 176 253 256 202 204 183 201 232 258 274 232 147 124 145 143 140 155 180 166 152 157 170 200 216 195 161 155 171 176 179 170 164 155 145 124
179 174 186 167 206 252 227 143 180 225 251 231 211 202 200 225 254 266 246 163 120 100 108 134 145 162 172 161 157 168 199 209 170 136 134 140 162 184 166 154 156 153 149 143
201 195 190 194 216 245 213 210 230 212 224 230 209 210 191 192 225 247 244 185 150 149 146 144 148 146 159 166 166 181 209 165 136 125 127 119 120 151 157 158 169 170 171 176
247 187 183 243 260 259 257 259 257 229 222 223 208 197 184 196 203 205 203 206 195 177 165 148 140 145 168 182 182 185 172 142 134 141 146 133 123 101 122 164 178 183 190 197
224 179 202 248 266 287 273 245 235 229 212 196 195 188 183 178 199 209 206 210 204 195 171 160 165 170 180 172 173 162 149 138 140 153 155 139 149 159 180 211 220 214 215 210
201 188 194 231 229 215 249 250 222 210 215 204 191 192 192 188 200 198 199 208 191 172 160 158 158 160 167 157 159 155 151 149 150 153 160 166 192 192 184 201 317 313 271 256
Height
1506 1512 1518 1517 1517 1519 1523 1528 1531 1528 1524 1526 1529 1528 1525 1524 1524 1524 1524 1525 1525 1527 1529 1530 1531 1532 1533 1534 1535 1536 1537 1537 1538 1538 1538 1538 1538 1538 1538 1537 1537 1536 1536 1535
1513 1517 1513 1513 1515 1518 1522 1528 1530 1527 1524 1526 1529 1528 1524 1522 1522 1522 1522 1523 1524 1525 1527 1528 1529 1531 1532 1533 1534 1535 1536 1537 1537 1538 1538 1538 1538 1538 1538 1538 1537 1537 1536 1535
1515 1515 1511 1514 1518 1521 1524 1527 1528 1528 1526 1526 1529 1530 1525 1521 1521 1520 1521 1521 1522 1523 1524 1526 1528 1529 1530 1531 1533 1534 1535 1536 1536 1537 1537 1537 1538 1538 1538 1537 1537 1536 1536 1535
1513 1511 1512 1515 1518 1520 1526 1521 1522 1525 1532 1538 1534 1543 1528 1524 1521 1519 1519 1519 1519 1520 1522 1524 1525 1527 1528 1530 1531 1533 1534 1535 1535 1536 1536 1536 1536 1536 1536 1537 1536 1536 1536 1535
1514 1511 1513 1516 1516 1517 1520 1518 1522 1526 1532 1539 1538 1542 1534 1525 1523 1519 1517 1516 1516 1517 1519 1521 1523 1524 1526 1528 1530 1531 1532 1534 1534 1535 1535 1535 1536 1536 1536 1536 1536 1536 1535 1534
1511 1510 1511 1512 1512 1514 1517 1522 1527 1533 1537 1546 1540 1543 1538 1528 1522 1517 1515 1514 1514 1515 1516 1518 1520 1522 1524 1526 1528 1529 1531 1532 1533 1533 1534 1534 1535 1535 1535 1535 1535 1535 1534 1534
1516 1513 1510 1510 1514 1516 1519 1530 1544 1546 1552 1549 1538 1539 1534 1520 1517 1515 1513 1512 1512 1513 1514 1515 1517 1519 1521 1523 1525 1527 1528 1529 1531 1532 1532 1533 1534 1534 1534 1534 1534 1534 1533 1532
1524 1524 1513 1510 1512 1517 1521 1527 1543 1551 1553 1548 1539 1540 1527 1516 1514 1513 1512 1511 1511 1511 1512 1513 1515 1517 1519 1521 1523 1524 1526 1527 1528 1530 1530 1532 1532 1533 1533 1533 1533 1533 1532 1531
1524 1523 1510 1509 1509 1512 1521 1527 1528 1540 1543 1548 1544 1535 1524 1515 1513 1512 1511 1510 1510 1510 1511 1512 1513 1515 1517 1519 1520 1522 1523 1525 1526 1527 1529 1530 1531 1531 1531 1532 1532 1531 1531 1530
1515 1521 1513 1510 1510 1512 1515 1522 1533 1540 1548 1551 1542 1537 1531 1518 1514 1512 1511 1510 1510 1510 1510 1511 1512 1513 1515 1517 1518 1520 1521 1523 1525 1526 1527 1528 1529 1529 1530 1530 1530 1530 1529 1529
1512 1521 1518 1514 1515 1517 1520 1524 1529 1538 1541 1549 1548 1538 1517 1514 1511 1511 1510 1509 1509 1509 1509 1509 1510 1512 1513 1515 1516 1518 1519 1521 1523 1524 1525 1526 1527 1528 1528 1528 1528 1528 1527 1527
1513 1521 1525 1519 1512 1511 1514 1518 1527 1536 1539 1543 1545 1536 1512 1511 1509 1508 1508 1508 1509 1508 1508 1509 1509 1510 1512 1513 1514 1515 1517 1519 1520 1522 1523 1524 1525 1526 1526 1526 1526 1526 1526 1525
1513 1521 1530 1527 1524 1517 1516 1517 1520 1527 1535 1542 1542 1531 1511 1509 1507 1507 1507 1507 1507 1507 1507 1508 1508 1509 1510 1511 1512 1513 1515 1516 1518 1519 1520 1522 1523 1523 1524 1524 1524 1524 1524 1523
1510 1520 1526 1529 1525 1519 1518 1517 1519 1524 1533 1535 1531 1522 1513 1509 1507 1506 1506 1506 1506 1506 1506 1506 1506 1507 1508 1509 1510 1511 1512 1514 1515 1517 1518 1519 1520 1521 1521 1522 1522 1522 1522 1521
1510 1519 1518 1517 1515 1515 1515 1515 1516 1519 1520 1524 1519 1516 1509 1506 1505 1504 1504 1504 1504 1504 1504 1504 1505 1505 1506 1507 1508 1509 1510 1512 1513 1514 1515 1516 1517 1518 1519 1519 1520 1520 1519 1519
1512 1517 1518 1517 1514 1514 1515 1513 1513 1514 1514 1515 1513 1511 1503 1502 1502 1502 1501 1501 1501 1501 1502 1502 1503 1504 1504 1505 1506 1507 1508 1509 1510 1511 1512 1514 1515 1515 1516 1516 1517 1517 1517 1517
1515 1517 1521 1523 1517 1514 1517 1510 1510 1510 1508 1509 1509 1504 1500 1501 1500 1499 1499 1499 1498 1499 1499 1500 1501 1502 1503 1503 1504 1505 1505 1507 1508 1509 1510 1512 1512 1513 1514 1514 1514 1514 1515 1515
1514 1518 1523 1525 1521 1523 1512 1502 1502 1504 1503 1502 1501 1499 1498 1498 1497 1497 1496 1496 1496 1496 1497 1498 1499 1500 1501 1502 1503 1503 1504 1505 1505 1506 1508 1509 1510 1510 1511 1512 1512 1512 1513 1513
1508 1515 1524 1528 1525 1519 1508 1501 1502 1503 1502 1498 1498 1496 1496 1496 1496 1495 1494 1494 1494 1494 1495 1496 1497 1498 1499 1499 1500 1501 1502 1502 1503 1504 1505 1506 1507 1508 1508 1509 1509 1510 1510 1510
1509 1512 1521 1525 1522 1521 1507 1498 1496 1500 1501 1494 1494 1495 1495 1495 1498 1494 1491 1492 1492 1492 1493 1494 1495 1496 1496 1497 1498 1499 1499 1500 1500 1501 1502 1503 1504 1505 1506 1506 1507 1507 1508 1508
1514 1517 1520 1522 1521 1512 1499 1496 1497 1506 1501 1492 1491 1491 1493 1493 1493 1491 1490 1490 1490 1490 1491 1492 1492 1493 1494 1495 1496 1496 1497 1497 1498 1499 1500 1501 1502 1503 1503 1504 1505 1505 1505 1506
1511 1515 1518 1520 1520 1511 1493 1494 1497 1495 1490 1489 1488 1489 1490 1490 1489 1489 1488 1488 1488 1488 1489 1490 1490 1491 1492 1493 1494 1494 1495 1496 1496 1497 1498 1499 1500 1500 1501 1501 1502 1503 1503 1503
1505 1503 1505 1505 1502 1492 1489 1489 1488 1488 1488 1487 1486 1487 1488 1488 1488 1487 1487 1487 1487 1487 1488 1488 1489 1489 1490 1491 1492 1492 1493 1494 1494 1495 1496 1497 1498 1498 1498 1499 1499 1500 1500 1500
1498 1496 1499 1498 1491 1487 1486 1485 1485 1485 1485 1485 1485 1485 1486 1486 1486 1486 1486 1486 1486 1486 1486 1487 1487 1488 1488 1489 1490 1491 1491 1492 1492 1493 1494 1495 1495 1495 1496 1496 1497 1497 1497 1497
1493 1494 1495 1493 1487 1484 1482 1482 1482 1482 1482 1482 1482 1483 1483 1484 1484 1484 1484 1484 1484 1484 1485 1485 1485 1486 1487 1487 1488 1489 1489 1490 1491 1491 1492 1493 1493 1493 1493 1494 1494 1494 1494 1495
1486 1488 1490 1486 1480 1481 1478 1478 1479 1478 1478 1479 1480 1480 1481 1481 1481 1482 1482 1482 1482 1482 1483 1483 1484 1484 1485 1485 1486 1487 1487 1488 1488 1489 1489 1490 1491 1491 1491 1491 1491 1491 1492 1492